"Time","Value","Approval","myLocation"
"2023-03-29 00:00",3.11857039458324,"Approved","OW389"
"2023-03-29 01:00",3.12948447349988,"Approved","OW389"
"2023-03-29 02:00",3.13139855241653,"Approved","OW389"
"2023-03-29 03:00",3.13631263133318,"Approved","OW389"
"2023-03-29 04:00",3.12322671024983,"Approved","OW389"
"2023-03-29 05:00",3.09514078916647,"Approved","OW389"
"2023-03-29 06:00",3.05505486808312,"Approved","OW389"
"2023-03-29 07:00",3.01496894699977,"Approved","OW389"
"2023-03-29 08:00",2.98388302591641,"Approved","OW389"
"2023-03-29 09:00",2.96479710483306,"Approved","OW389"
"2023-03-29 10:00",2.94471118374971,"Approved","OW389"
"2023-03-29 11:00",2.94362526266636,"Approved","OW389"
"2023-03-29 12:00",2.949539341583,"Approved","OW389"
"2023-03-29 13:00",2.95745342049965,"Approved","OW389"
"2023-03-29 14:00",2.9643674994163,"Approved","OW389"
"2023-03-29 15:00",2.96828157833294,"Approved","OW389"
"2023-03-29 16:00",2.97819565724959,"Approved","OW389"
"2023-03-29 17:00",3.00110973616624,"Approved","OW389"
"2023-03-29 18:00",3.01602381508289,"Approved","OW389"
"2023-03-29 19:00",3.02993789399953,"Approved","OW389"
"2023-03-29 20:00",3.04985197291618,"Approved","OW389"
"2023-03-29 21:00",3.05276605183283,"Approved","OW389"
"2023-03-29 22:00",3.06568013074947,"Approved","OW389"
"2023-03-29 23:00",3.08459420966612,"Approved","OW389"
"2023-03-30 00:00",3.10350828858277,"Approved","OW389"
"2023-03-30 01:00",3.11842236749942,"Approved","OW389"
"2023-03-30 02:00",3.12633644641606,"Approved","OW389"
"2023-03-30 03:00",3.13925052533271,"Approved","OW389"
"2023-03-30 04:00",3.14216460424936,"Approved","OW389"
"2023-03-30 05:00",3.129078683166,"Approved","OW389"
"2023-03-30 06:00",3.10199276208265,"Approved","OW389"
"2023-03-30 07:00",3.0649068409993,"Approved","OW389"
"2023-03-30 08:00",3.02082091991595,"Approved","OW389"
"2023-03-30 09:00",2.97473499883259,"Approved","OW389"
"2023-03-30 10:00",2.94764907774924,"Approved","OW389"
"2023-03-30 11:00",2.93556315666589,"Approved","OW389"
"2023-03-30 12:00",2.93447723558254,"Approved","OW389"
"2023-03-30 13:00",2.94239131449918,"Approved","OW389"
"2023-03-30 14:00",2.95530539341583,"Approved","OW389"
"2023-03-30 15:00",2.96821947233248,"Approved","OW389"
"2023-03-30 16:00",2.97813355124912,"Approved","OW389"
"2023-03-30 17:00",3.00804763016577,"Approved","OW389"
"2023-03-30 18:00",3.02496170908242,"Approved","OW389"
"2023-03-30 19:00",3.03887578799907,"Approved","OW389"
"2023-03-30 20:00",3.05278986691571,"Approved","OW389"
"2023-03-30 21:00",3.05570394583236,"Approved","OW389"
"2023-03-30 22:00",3.05161802474901,"Approved","OW389"
"2023-03-30 23:00",3.07353210366565,"Approved","OW389"
"2023-03-31 00:00",3.1064461825823,"Approved","OW389"
"2023-03-31 01:00",3.13436026149895,"Approved","OW389"
"2023-03-31 02:00",3.1592743404156,"Approved","OW389"
"2023-03-31 03:00",3.17618841933224,"Approved","OW389"
"2023-03-31 04:00",3.18410249824889,"Approved","OW389"
"2023-03-31 05:00",3.18601657716554,"Approved","OW389"
"2023-03-31 06:00",3.17193065608219,"Approved","OW389"
"2023-03-31 07:00",3.14284473499883,"Approved","OW389"
"2023-03-31 08:00",3.08775881391548,"Approved","OW389"
"2023-03-31 09:00",3.03467289283213,"Approved","OW389"
"2023-03-31 10:00",2.99058697174877,"Approved","OW389"
"2023-03-31 11:00",2.96250105066542,"Approved","OW389"
"2023-03-31 12:00",2.94941512958207,"Approved","OW389"
"2023-03-31 13:00",2.95032920849872,"Approved","OW389"
"2023-03-31 14:00",2.96124328741536,"Approved","OW389"
"2023-03-31 15:00",2.97615736633201,"Approved","OW389"
"2023-03-31 16:00",3.01307144524866,"Approved","OW389"
"2023-03-31 17:00",3.0329855241653,"Approved","OW389"
"2023-03-31 18:00",3.05289960308195,"Approved","OW389"
"2023-03-31 19:00",3.0638136819986,"Approved","OW389"
"2023-03-31 20:00",3.06872776091525,"Approved","OW389"
"2023-03-31 21:00",3.07464183983189,"Approved","OW389"
"2023-03-31 22:00",3.08555591874854,"Approved","OW389"
"2023-03-31 23:00",3.07346999766519,"Approved","OW389"
"2023-04-01 00:00",3.08038407658184,"Approved","OW389"
"2023-04-01 01:00",3.09529815549848,"Approved","OW389"
"2023-04-01 02:00",3.11521223441513,"Approved","OW389"
"2023-04-01 03:00",3.13112631333178,"Approved","OW389"
"2023-04-01 04:00",3.14604039224842,"Approved","OW389"
"2023-04-01 05:00",3.16295447116507,"Approved","OW389"
"2023-04-01 06:00",3.16486855008172,"Approved","OW389"
"2023-04-01 07:00",3.14878262899837,"Approved","OW389"
"2023-04-01 08:00",3.11769670791501,"Approved","OW389"
"2023-04-01 09:00",3.06661078683166,"Approved","OW389"
"2023-04-01 10:00",3.01352486574831,"Approved","OW389"
"2023-04-01 11:00",2.97043894466495,"Approved","OW389"
"2023-04-01 12:00",2.9493530235816,"Approved","OW389"
"2023-04-01 13:00",2.94226710249825,"Approved","OW389"
"2023-04-01 14:00",2.9691811814149,"Approved","OW389"
"2023-04-01 15:00",2.99509526033154,"Approved","OW389"
"2023-04-01 16:00",3.02300933924819,"Approved","OW389"
"2023-04-01 17:00",3.04592341816484,"Approved","OW389"
"2023-04-01 18:00",3.06383749708148,"Approved","OW389"
"2023-04-01 19:00",3.06875157599813,"Approved","OW389"
"2023-04-01 20:00",3.06866565491478,"Approved","OW389"
"2023-04-01 21:00",3.06157973383143,"Approved","OW389"
"2023-04-01 22:00",3.05449381274807,"Approved","OW389"
"2023-04-01 23:00",3.05540789166472,"Approved","OW389"
"2023-04-02 00:00",3.06632197058137,"Approved","OW389"
"2023-04-02 01:00",3.08523604949802,"Approved","OW389"
"2023-04-02 02:00",3.11115012841466,"Approved","OW389"
"2023-04-02 03:00",3.14106420733131,"Approved","OW389"
"2023-04-02 04:00",3.16697828624796,"Approved","OW389"
"2023-04-02 05:00",3.1848923651646,"Approved","OW389"
"2023-04-02 06:00",3.19380644408125,"Approved","OW389"
"2023-04-02 07:00",3.1897205229979,"Approved","OW389"
"2023-04-02 08:00",3.16863460191455,"Approved","OW389"
"2023-04-02 09:00",3.13354868083119,"Approved","OW389"
"2023-04-02 10:00",3.08746275974784,"Approved","OW389"
"2023-04-02 11:00",3.04237683866449,"Approved","OW389"
"2023-04-02 12:00",3.01329091758113,"Approved","OW389"
"2023-04-02 13:00",2.99620499649778,"Approved","OW389"
"2023-04-02 14:00",2.99411907541443,"Approved","OW389"
"2023-04-02 15:00",3.00703315433108,"Approved","OW389"
"2023-04-02 16:00",3.02694723324772,"Approved","OW389"
"2023-04-02 17:00",3.05786131216437,"Approved","OW389"
"2023-04-02 18:00",3.08877539108102,"Approved","OW389"
"2023-04-02 19:00",3.10268946999767,"Approved","OW389"
"2023-04-02 20:00",3.10760354891431,"Approved","OW389"
"2023-04-02 21:00",3.09851762783096,"Approved","OW389"
"2023-04-02 22:00",3.08543170674761,"Approved","OW389"
"2023-04-02 23:00",3.07534578566425,"Approved","OW389"
"2023-04-03 00:00",3.0752598645809,"Approved","OW389"
"2023-04-03 01:00",3.08917394349755,"Approved","OW389"
"2023-04-03 02:00",3.1140880224142,"Approved","OW389"
"2023-04-03 03:00",3.14500210133084,"Approved","OW389"
"2023-04-03 04:00",3.17691618024749,"Approved","OW389"
"2023-04-03 05:00",3.20383025916414,"Approved","OW389"
"2023-04-03 06:00",3.22174433808078,"Approved","OW389"
"2023-04-03 07:00",3.22665841699743,"Approved","OW389"
"2023-04-03 08:00",3.20457249591408,"Approved","OW389"
"2023-04-03 09:00",3.16648657483073,"Approved","OW389"
"2023-04-03 10:00",3.11540065374737,"Approved","OW389"
"2023-04-03 11:00",3.06031473266402,"Approved","OW389"
"2023-04-03 12:00",3.01422881158067,"Approved","OW389"
"2023-04-03 13:00",2.99214289049732,"Approved","OW389"
"2023-04-03 14:00",2.98805696941396,"Approved","OW389"
"2023-04-03 15:00",3.01897104833061,"Approved","OW389"
"2023-04-03 16:00",3.05488512724726,"Approved","OW389"
"2023-04-03 17:00",3.0907992061639,"Approved","OW389"
"2023-04-03 18:00",3.11971328508055,"Approved","OW389"
"2023-04-03 19:00",3.1406273639972,"Approved","OW389"
"2023-04-03 20:00",3.14654144291385,"Approved","OW389"
"2023-04-03 21:00",3.14045552183049,"Approved","OW389"
"2023-04-03 22:00",3.13136960074714,"Approved","OW389"
"2023-04-03 23:00",3.11428367966379,"Approved","OW389"
"2023-04-04 00:00",3.10519775858043,"Approved","OW389"
"2023-04-04 01:00",3.11411183749708,"Approved","OW389"
"2023-04-04 02:00",3.12002591641373,"Approved","OW389"
"2023-04-04 03:00",3.12493999533038,"Approved","OW389"
"2023-04-04 04:00",3.14785407424702,"Approved","OW389"
"2023-04-04 05:00",3.17076815316367,"Approved","OW389"
"2023-04-04 06:00",3.18768223208032,"Approved","OW389"
"2023-04-04 07:00",3.20659631099696,"Approved","OW389"
"2023-04-04 08:00",3.21051038991361,"Approved","OW389"
"2023-04-04 09:00",3.19642446883026,"Approved","OW389"
"2023-04-04 10:00",3.16333854774691,"Approved","OW389"
"2023-04-04 11:00",3.11725262666355,"Approved","OW389"
"2023-04-04 12:00",3.0721667055802,"Approved","OW389"
"2023-04-04 13:00",3.03608078449685,"Approved","OW389"
"2023-04-04 14:00",3.0229948634135,"Approved","OW389"
"2023-04-04 15:00",3.03390894233014,"Approved","OW389"
"2023-04-04 16:00",3.05782302124679,"Approved","OW389"
"2023-04-04 17:00",3.10173710016344,"Approved","OW389"
"2023-04-04 18:00",3.14465117908008,"Approved","OW389"
"2023-04-04 19:00",3.18456525799673,"Approved","OW389"
"2023-04-04 20:00",3.20547933691338,"Approved","OW389"
"2023-04-04 21:00",3.21339341583003,"Approved","OW389"
"2023-04-04 22:00",3.20030749474667,"Approved","OW389"
"2023-04-04 23:00",3.14822157366332,"Approved","OW389"
"2023-04-05 00:00",3.10813565257997,"Approved","OW389"
"2023-04-05 01:00",3.08004973149661,"Approved","OW389"
"2023-04-05 02:00",3.07296381041326,"Approved","OW389"
"2023-04-05 03:00",3.09487788932991,"Approved","OW389"
"2023-04-05 04:00",3.13279196824656,"Approved","OW389"
"2023-04-05 05:00",3.1697060471632,"Approved","OW389"
"2023-04-05 06:00",3.20462012607985,"Approved","OW389"
"2023-04-05 07:00",3.2265342049965,"Approved","OW389"
"2023-04-05 08:00",3.23744828391315,"Approved","OW389"
"2023-04-05 09:00",3.23136236282979,"Approved","OW389"
"2023-04-05 10:00",3.20627644174644,"Approved","OW389"
"2023-04-05 11:00",3.16619052066309,"Approved","OW389"
"2023-04-05 12:00",3.11910459957973,"Approved","OW389"
"2023-04-05 13:00",3.08401867849638,"Approved","OW389"
"2023-04-05 14:00",3.07493275741303,"Approved","OW389"
"2023-04-05 15:00",3.08784683632968,"Approved","OW389"
"2023-04-05 16:00",3.11576091524632,"Approved","OW389"
"2023-04-05 17:00",3.15367499416297,"Approved","OW389"
"2023-04-05 18:00",3.19058907307962,"Approved","OW389"
"2023-04-05 19:00",3.22350315199626,"Approved","OW389"
"2023-04-05 20:00",3.24241723091291,"Approved","OW389"
"2023-04-05 21:00",3.24633130982956,"Approved","OW389"
"2023-04-05 22:00",3.23424538874621,"Approved","OW389"
"2023-04-05 23:00",3.20615946766285,"Approved","OW389"
"2023-04-06 00:00",3.1660735465795,"Approved","OW389"
"2023-04-06 01:00",3.12998762549615,"Approved","OW389"
"2023-04-06 02:00",3.1119017044128,"Approved","OW389"
"2023-04-06 03:00",3.11681578332944,"Approved","OW389"
"2023-04-06 04:00",3.12572986224609,"Approved","OW389"
"2023-04-06 05:00",3.14364394116274,"Approved","OW389"
"2023-04-06 06:00",3.16755802007938,"Approved","OW389"
"2023-04-06 07:00",3.18747209899603,"Approved","OW389"
"2023-04-06 08:00",3.19738617791268,"Approved","OW389"
"2023-04-06 09:00",3.20230025682933,"Approved","OW389"
"2023-04-06 10:00",3.18721433574597,"Approved","OW389"
"2023-04-06 11:00",3.15412841466262,"Approved","OW389"
"2023-04-06 12:00",3.10504249357927,"Approved","OW389"
"2023-04-06 13:00",3.05195657249591,"Approved","OW389"
"2023-04-06 14:00",3.02687065141256,"Approved","OW389"
"2023-04-06 15:00",3.02678473032921,"Approved","OW389"
"2023-04-06 16:00",3.04769880924586,"Approved","OW389"
"2023-04-06 17:00",3.0826128881625,"Approved","OW389"
"2023-04-06 18:00",3.11852696707915,"Approved","OW389"
"2023-04-06 19:00",3.1534410459958,"Approved","OW389"
"2023-04-06 20:00",3.19735512491244,"Approved","OW389"
"2023-04-06 21:00",3.21626920382909,"Approved","OW389"
"2023-04-06 22:00",3.21518328274574,"Approved","OW389"
"2023-04-06 23:00",3.19409736166239,"Approved","OW389"
"2023-04-07 00:00",3.15501144057903,"Approved","OW389"
"2023-04-07 01:00",3.08692551949568,"Approved","OW389"
"2023-04-07 02:00",3.05783959841233,"Approved","OW389"
"2023-04-07 03:00",3.04775367732897,"Approved","OW389"
"2023-04-07 04:00",3.05866775624562,"Approved","OW389"
"2023-04-07 05:00",3.08458183516227,"Approved","OW389"
"2023-04-07 06:00",3.11749591407892,"Approved","OW389"
"2023-04-07 07:00",3.14940999299556,"Approved","OW389"
"2023-04-07 08:00",3.17432407191221,"Approved","OW389"
"2023-04-07 09:00",3.18323815082886,"Approved","OW389"
"2023-04-07 10:00",3.17315222974551,"Approved","OW389"
"2023-04-07 11:00",3.12706630866215,"Approved","OW389"
"2023-04-07 12:00",3.0779803875788,"Approved","OW389"
"2023-04-07 13:00",3.02889446649545,"Approved","OW389"
"2023-04-07 14:00",2.99780854541209,"Approved","OW389"
"2023-04-07 15:00",2.99472262432874,"Approved","OW389"
"2023-04-07 16:00",3.01563670324539,"Approved","OW389"
"2023-04-07 17:00",3.06255078216204,"Approved","OW389"
"2023-04-07 18:00",3.11246486107868,"Approved","OW389"
"2023-04-07 19:00",3.15937893999533,"Approved","OW389"
"2023-04-07 20:00",3.19429301891198,"Approved","OW389"
"2023-04-07 21:00",3.21820709782862,"Approved","OW389"
"2023-04-07 22:00",3.22712117674527,"Approved","OW389"
"2023-04-07 23:00",3.21703525566192,"Approved","OW389"
"2023-04-08 00:00",3.18594933457857,"Approved","OW389"
"2023-04-08 01:00",3.13886341349521,"Approved","OW389"
"2023-04-08 02:00",3.08877749241186,"Approved","OW389"
"2023-04-08 03:00",3.05369157132851,"Approved","OW389"
"2023-04-08 04:00",3.03560565024516,"Approved","OW389"
"2023-04-08 05:00",3.0385197291618,"Approved","OW389"
"2023-04-08 06:00",3.05543380807845,"Approved","OW389"
"2023-04-08 07:00",3.0813478869951,"Approved","OW389"
"2023-04-08 08:00",3.10126196591174,"Approved","OW389"
"2023-04-08 09:00",3.11417604482839,"Approved","OW389"
"2023-04-08 10:00",3.10809012374504,"Approved","OW389"
"2023-04-08 11:00",3.10200420266169,"Approved","OW389"
"2023-04-08 12:00",3.07391828157833,"Approved","OW389"
"2023-04-08 13:00",3.03483236049498,"Approved","OW389"
"2023-04-08 14:00",3.00574643941163,"Approved","OW389"
"2023-04-08 15:00",2.99766051832827,"Approved","OW389"
"2023-04-08 16:00",3.01557459724492,"Approved","OW389"
"2023-04-08 17:00",3.05248867616157,"Approved","OW389"
"2023-04-08 18:00",3.09840275507822,"Approved","OW389"
"2023-04-08 19:00",3.14531683399486,"Approved","OW389"
"2023-04-08 20:00",3.18523091291151,"Approved","OW389"
"2023-04-08 21:00",3.21514499182816,"Approved","OW389"
"2023-04-08 22:00",3.2300590707448,"Approved","OW389"
"2023-04-08 23:00",3.22997314966145,"Approved","OW389"
"2023-04-09 00:00",3.2118872285781,"Approved","OW389"
"2023-04-09 01:00",3.17080130749475,"Approved","OW389"
"2023-04-09 02:00",3.11571538641139,"Approved","OW389"
"2023-04-09 03:00",3.06462946532804,"Approved","OW389"
"2023-04-09 04:00",3.03354354424469,"Approved","OW389"
"2023-04-09 05:00",3.02645762316134,"Approved","OW389"
"2023-04-09 06:00",3.03737170207798,"Approved","OW389"
"2023-04-09 07:00",3.06228578099463,"Approved","OW389"
"2023-04-09 08:00",3.08919985991128,"Approved","OW389"
"2023-04-09 09:00",3.10911393882792,"Approved","OW389"
"2023-04-09 10:00",3.10702801774457,"Approved","OW389"
"2023-04-09 11:00",3.08794209666122,"Approved","OW389"
"2023-04-09 12:00",3.05585617557787,"Approved","OW389"
"2023-04-09 13:00",3.01477025449451,"Approved","OW389"
"2023-04-09 14:00",2.97768433341116,"Approved","OW389"
"2023-04-09 15:00",2.95659841232781,"Approved","OW389"
"2023-04-09 16:00",2.97151249124446,"Approved","OW389"
"2023-04-09 17:00",3.0064265701611,"Approved","OW389"
"2023-04-09 18:00",3.05134064907775,"Approved","OW389"
"2023-04-09 19:00",3.0992547279944,"Approved","OW389"
"2023-04-09 20:00",3.14216880691104,"Approved","OW389"
"2023-04-09 21:00",3.17508288582769,"Approved","OW389"
"2023-04-09 22:00",3.19599696474434,"Approved","OW389"
"2023-04-09 23:00",3.20191104366099,"Approved","OW389"
"2023-04-10 00:00",3.19182512257763,"Approved","OW389"
"2023-04-10 01:00",3.16373920149428,"Approved","OW389"
"2023-04-10 02:00",3.11465328041093,"Approved","OW389"
"2023-04-10 03:00",3.05856735932757,"Approved","OW389"
"2023-04-10 04:00",3.01148143824422,"Approved","OW389"
"2023-04-10 05:00",2.96639551716087,"Approved","OW389"
"2023-04-10 06:00",2.96830959607752,"Approved","OW389"
"2023-04-10 07:00",2.98522367499416,"Approved","OW389"
"2023-04-10 08:00",3.00713775391081,"Approved","OW389"
"2023-04-10 09:00",3.03205183282746,"Approved","OW389"
"2023-04-10 10:00",3.0469659117441,"Approved","OW389"
"2023-04-10 11:00",3.04987999066075,"Approved","OW389"
"2023-04-10 12:00",3.0387940695774,"Approved","OW389"
"2023-04-10 13:00",3.01570814849405,"Approved","OW389"
"2023-04-10 14:00",2.99062222741069,"Approved","OW389"
"2023-04-10 15:00",2.96853630632734,"Approved","OW389"
"2023-04-10 16:00",2.96545038524399,"Approved","OW389"
"2023-04-10 17:00",2.98136446416064,"Approved","OW389"
"2023-04-10 18:00",3.01527854307728,"Approved","OW389"
"2023-04-10 19:00",3.05419262199393,"Approved","OW389"
"2023-04-10 20:00",3.09510670091058,"Approved","OW389"
"2023-04-10 21:00",3.12902077982722,"Approved","OW389"
"2023-04-10 22:00",3.15393485874387,"Approved","OW389"
"2023-04-10 23:00",3.16784893766052,"Approved","OW389"
"2023-04-11 00:00",3.17176301657717,"Approved","OW389"
"2023-04-11 01:00",3.15967709549381,"Approved","OW389"
"2023-04-11 02:00",3.12759117441046,"Approved","OW389"
"2023-04-11 03:00",3.07850525332711,"Approved","OW389"
"2023-04-11 04:00",3.03341933224375,"Approved","OW389"
"2023-04-11 05:00",2.9913334111604,"Approved","OW389"
"2023-04-11 06:00",2.95024749007705,"Approved","OW389"
"2023-04-11 07:00",2.9231615689937,"Approved","OW389"
"2023-04-11 08:00",2.92007564791034,"Approved","OW389"
"2023-04-11 09:00",2.92798972682699,"Approved","OW389"
"2023-04-11 10:00",2.93690380574364,"Approved","OW389"
"2023-04-11 11:00",2.93981788466029,"Approved","OW389"
"2023-04-11 12:00",2.93373196357693,"Approved","OW389"
"2023-04-11 13:00",2.93264604249358,"Approved","OW389"
"2023-04-11 14:00",2.91756012141023,"Approved","OW389"
"2023-04-11 15:00",2.90247420032687,"Approved","OW389"
"2023-04-11 16:00",2.89438827924352,"Approved","OW389"
"2023-04-11 17:00",2.90430235816017,"Approved","OW389"
"2023-04-11 18:00",2.92921643707682,"Approved","OW389"
"2023-04-11 19:00",2.96713051599346,"Approved","OW389"
"2023-04-11 20:00",3.00804459491011,"Approved","OW389"
"2023-04-11 21:00",3.04695867382676,"Approved","OW389"
"2023-04-11 22:00",3.0788727527434,"Approved","OW389"
"2023-04-11 23:00",3.10278683166005,"Approved","OW389"
"2023-04-12 00:00",3.1177009105767,"Approved","OW389"
"2023-04-12 01:00",3.12061498949335,"Approved","OW389"
"2023-04-12 02:00",3.11052906840999,"Approved","OW389"
"2023-04-12 03:00",3.08044314732664,"Approved","OW389"
"2023-04-12 04:00",3.03135722624329,"Approved","OW389"
"2023-04-12 05:00",2.96527130515993,"Approved","OW389"
"2023-04-12 06:00",2.91018538407658,"Approved","OW389"
"2023-04-12 07:00",2.87609946299323,"Approved","OW389"
"2023-04-12 08:00",2.86001354190988,"Approved","OW389"
"2023-04-12 09:00",2.85792762082652,"Approved","OW389"
"2023-04-12 10:00",2.86584169974317,"Approved","OW389"
"2023-04-12 11:00",2.87675577865982,"Approved","OW389"
"2023-04-12 12:00",2.88266985757646,"Approved","OW389"
"2023-04-12 13:00",2.88058393649311,"Approved","OW389"
"2023-04-12 14:00",2.89349801540976,"Approved","OW389"
"2023-04-12 15:00",2.88841209432641,"Approved","OW389"
"2023-04-12 16:00",2.88532617324305,"Approved","OW389"
"2023-04-12 17:00",2.8882402521597,"Approved","OW389"
"2023-04-12 18:00",2.90215433107635,"Approved","OW389"
"2023-04-12 19:00",2.932068409993,"Approved","OW389"
"2023-04-12 20:00",2.96398248890964,"Approved","OW389"
"2023-04-12 21:00",3.00289656782629,"Approved","OW389"
"2023-04-12 22:00",3.01881064674294,"Approved","OW389"
"2023-04-12 23:00",3.03772472565958,"Approved","OW389"
"2023-04-13 00:00",3.05363880457623,"Approved","OW389"
"2023-04-13 01:00",3.08055288349288,"Approved","OW389"
"2023-04-13 02:00",3.08546696240953,"Approved","OW389"
"2023-04-13 03:00",3.07738104132617,"Approved","OW389"
"2023-04-13 04:00",3.04829512024282,"Approved","OW389"
"2023-04-13 05:00",3.00220919915947,"Approved","OW389"
"2023-04-13 06:00",2.94812327807611,"Approved","OW389"
"2023-04-13 07:00",2.89903735699276,"Approved","OW389"
"2023-04-13 08:00",2.86995143590941,"Approved","OW389"
"2023-04-13 09:00",2.85586551482606,"Approved","OW389"
"2023-04-13 10:00",2.8577795937427,"Approved","OW389"
"2023-04-13 11:00",2.87069367265935,"Approved","OW389"
"2023-04-13 12:00",2.885607751576,"Approved","OW389"
"2023-04-13 13:00",2.88252183049264,"Approved","OW389"
"2023-04-13 14:00",2.88343590940929,"Approved","OW389"
"2023-04-13 15:00",2.87834998832594,"Approved","OW389"
"2023-04-13 16:00",2.87126406724259,"Approved","OW389"
"2023-04-13 17:00",2.87117814615923,"Approved","OW389"
"2023-04-13 18:00",2.87709222507588,"Approved","OW389"
"2023-04-13 19:00",2.89000630399253,"Approved","OW389"
"2023-04-13 20:00",2.91092038290918,"Approved","OW389"
"2023-04-13 21:00",2.93883446182582,"Approved","OW389"
"2023-04-13 22:00",2.97474854074247,"Approved","OW389"
"2023-04-13 23:00",3.00866261965912,"Approved","OW389"
"2023-04-14 00:00",3.03657669857576,"Approved","OW389"
"2023-04-14 01:00",3.06049077749241,"Approved","OW389"
"2023-04-14 02:00",3.07440485640906,"Approved","OW389"
"2023-04-14 03:00",3.07831893532571,"Approved","OW389"
"2023-04-14 04:00",3.07023301424235,"Approved","OW389"
"2023-04-14 05:00",3.039147093159,"Approved","OW389"
"2023-04-14 06:00",2.98206117207565,"Approved","OW389"
"2023-04-14 07:00",2.9189752509923,"Approved","OW389"
"2023-04-14 08:00",2.86288932990894,"Approved","OW389"
"2023-04-14 09:00",2.82180340882559,"Approved","OW389"
"2023-04-14 10:00",2.79971748774224,"Approved","OW389"
"2023-04-14 11:00",2.80463156665888,"Approved","OW389"
"2023-04-14 12:00",2.82454564557553,"Approved","OW389"
"2023-04-14 13:00",2.84945972449218,"Approved","OW389"
"2023-04-14 14:00",2.87337380340883,"Approved","OW389"
"2023-04-14 15:00",2.89128788232547,"Approved","OW389"
"2023-04-14 16:00",2.90020196124212,"Approved","OW389"
"2023-04-14 17:00",2.90311604015877,"Approved","OW389"
"2023-04-14 18:00",2.90203011907541,"Approved","OW389"
"2023-04-14 19:00",2.89994419799206,"Approved","OW389"
"2023-04-14 20:00",2.90385827690871,"Approved","OW389"
"2023-04-14 21:00",2.93077235582536,"Approved","OW389"
"2023-04-14 22:00",2.962686434742,"Approved","OW389"
"2023-04-14 23:00",2.99960051365865,"Approved","OW389"
"2023-04-15 00:00",3.0375145925753,"Approved","OW389"
"2023-04-15 01:00",3.04342867149194,"Approved","OW389"
"2023-04-15 02:00",3.05634275040859,"Approved","OW389"
"2023-04-15 03:00",3.06325682932524,"Approved","OW389"
"2023-04-15 04:00",3.06317090824189,"Approved","OW389"
"2023-04-15 05:00",3.04908498715853,"Approved","OW389"
"2023-04-15 06:00",3.03599906607518,"Approved","OW389"
"2023-04-15 07:00",2.99491314499183,"Approved","OW389"
"2023-04-15 08:00",2.93982722390848,"Approved","OW389"
"2023-04-15 09:00",2.88774130282512,"Approved","OW389"
"2023-04-15 10:00",2.85165538174177,"Approved","OW389"
"2023-04-15 11:00",2.83756946065842,"Approved","OW389"
"2023-04-15 12:00",2.82148353957506,"Approved","OW389"
"2023-04-15 13:00",2.83139761849171,"Approved","OW389"
"2023-04-15 14:00",2.85131169740836,"Approved","OW389"
"2023-04-15 15:00",2.87422577632501,"Approved","OW389"
"2023-04-15 16:00",2.90513985524165,"Approved","OW389"
"2023-04-15 17:00",2.9200539341583,"Approved","OW389"
"2023-04-15 18:00",2.92496801307495,"Approved","OW389"
"2023-04-15 19:00",2.92288209199159,"Approved","OW389"